ECMWFNIL_925_thetae_003.txt.gz
Theta_e
288 288 287 287 287 286 286 285 285 285 284 284 284 284 283 283 283 282 281 280 280 280 280 280 280 281 281 281 281 282 282 282 282 282 282 282 282 282 282 282 282 282
287 287 287 287 286 286 285 285 284 284 284 284 284 283 283 282 282 281 280 280 280 280 280 280 280 280 281 281 281 281 281 281 281 281 282 282 282 282 282 282 282 282
287 286 286 286 285 285 285 284 284 284 284 284 283 283 283 282 281 280 280 280 280 280 280 280 280 280 280 280 280 280 280 280 281 281 281 281 281 281 281 281 281 281
286 286 285 285 285 284 284 284 284 284 284 283 283 282 282 281 280 280 279 279 279 279 279 279 279 279 279 279 279 280 280 280 280 280 280 280 280 281 281 281 281 281
286 285 285 285 284 284 283 283 283 284 284 283 282 281 280 280 279 279 279 279 279 279 279 279 279 278 279 279 279 279 279 279 279 279 279 279 280 280 280 280 280 280
285 285 284 284 284 283 283 283 284 284 283 282 281 280 279 279 279 279 279 278 278 278 278 278 278 278 278 278 278 278 278 278 278 278 278 279 279 279 279 279 280 280
284 284 284 284 283 283 283 284 284 283 282 281 280 279 279 279 278 278 278 278 277 277 277 277 277 277 277 277 277 277 277 277 277 277 277 277 277 278 278 278 279 279
284 283 283 283 283 283 283 283 283 282 281 280 279 279 278 278 278 278 277 277 277 277 277 276 276 276 276 276 276 276 276 276 276 276 276 276 276 276 276 277 277 277
283 283 283 283 282 283 283 283 282 281 280 280 279 278 278 278 277 277 276 276 276 276 276 276 276 276 275 275 275 275 275 275 274 274 274 274 274 274 274 275 275 275
282 282 282 282 282 283 283 282 281 280 280 279 279 278 278 277 277 276 276 276 275 275 275 275 275 274 274 274 274 273 273 273 273 273 273 273 273 273 273 273 273 273
282 282 282 282 282 282 282 281 280 279 279 279 278 278 277 277 276 276 275 275 275 274 274 274 273 273 273 273 273 272 272 272 272 272 272 272 272 272 272 272 271 271
281 281 281 282 282 282 281 281 280 279 279 278 278 277 277 276 276 275 275 274 273 273 273 273 272 272 272 272 272 272 271 271 271 271 271 271 271 271 271 271 271 271
281 281 281 282 282 281 281 280 279 279 278 278 277 277 277 276 275 275 274 273 272 272 272 272 272 272 271 271 271 271 271 271 271 271 271 271 271 271 271 270 271 271
281 281 281 281 281 281 280 279 279 278 277 277 278 278 277 276 275 274 273 272 272 272 272 271 271 271 271 271 271 271 271 271 271 271 271 271 271 271 271 271 271 271
281 281 281 281 281 280 279 278 278 278 278 278 278 277 276 276 275 273 272 271 272 271 271 271 271 271 271 271 271 271 271 271 271 272 272 272 272 272 272 272 272 272
281 281 281 281 280 279 278 278 278 278 278 278 277 277 276 276 275 273 271 271 271 271 271 271 271 271 271 271 271 272 272 272 272 273 273 273 273 273 273 273 273 273
281 280 280 280 279 278 278 278 278 278 278 277 276 276 276 276 274 272 271 270 270 271 271 271 271 271 271 271 272 273 273 273 273 273 273 273 273 273 273 273 273 273
280 280 280 279 278 278 278 278 278 277 277 276 276 276 275 274 272 270 270 270 270 270 270 270 270 271 271 272 272 273 273 274 274 274 274 274 274 273 273 273 273 273
280 280 279 278 277 278 277 277 277 276 276 275 275 275 274 272 270 270 269 269 270 270 270 270 270 270 271 271 272 273 274 274 274 274 274 274 274 273 273 273 273 273
279 279 278 277 277 277 277 276 276 275 275 274 274 274 272 270 269 269 269 269 269 270 269 270 271 271 270 271 272 273 274 274 274 274 274 273 273 273 273 273 273 273
278 277 276 276 276 276 276 275 275 274 274 273 273 272 270 269 269 269 268 269 269 269 269 269 270 271 270 271 272 273 274 274 274 273 273 273 273 273 273 273 273 274
277 276 275 275 275 275 274 274 274 273 273 272 271 269 269 269 269 268 268 269 269 269 268 268 270 270 270 271 272 273 273 274 273 273 273 273 273 274 274 274 274 274
276 276 275 274 274 274 273 273 273 272 271 270 269 268 268 268 268 268 268 269 269 269 268 267 269 270 270 271 272 273 273 273 273 273 273 273 274 274 274 274 274 274
275 275 274 273 273 273 273 272 272 271 270 270 269 268 268 268 268 268 268 269 269 268 268 267 268 270 270 271 272 273 273 273 273 273 273 273 274 274 274 274 274 275
274 274 274 273 273 273 272 272 271 270 269 269 268 268 268 268 267 267 268 269 269 268 268 268 268 269 270 271 272 273 273 274 273 273 274 274 274 274 274 275 275 276
275 274 274 274 273 273 272 271 270 269 268 268 268 268 268 267 267 267 268 270 269 268 268 269 269 269 270 271 272 273 273 274 274 274 274 274 275 275 275 276 276 275

ECMWFNIL_925_thetae_006.txt.gz
Theta_e
291 291 291 291 290 290 289 289 288 288 288 287 287 287 286 286 286 286 286 285 285 284 283 282 281 281 281 281 281 281 281 281 281 282 282 282 282 282 282 282 282 282
291 291 291 290 290 289 289 289 288 288 288 287 286 286 286 285 285 285 285 285 284 283 282 281 281 281 281 281 281 281 281 281 281 281 281 281 281 281 281 282 282 282
291 290 290 290 290 289 289 288 288 288 287 286 286 286 285 285 285 285 285 284 284 283 282 281 281 281 281 280 280 280 280 280 280 280 280 280 281 281 281 281 281 281
290 290 290 290 289 289 288 288 287 287 287 286 285 285 285 285 285 285 285 284 284 283 282 281 281 281 280 280 280 280 280 280 280 280 280 280 280 280 280 280 280 280
289 289 289 289 289 288 288 287 287 286 286 286 285 285 285 286 286 285 285 284 283 282 281 281 281 280 280 280 279 279 279 279 279 279 279 279 279 279 279 279 279 279
289 289 288 288 288 288 287 287 287 286 286 285 285 285 285 286 286 285 284 283 282 282 281 281 280 280 279 279 279 279 279 279 279 278 278 279 279 279 278 278 278 278
288 288 288 287 287 287 287 286 286 286 286 285 285 285 286 286 285 285 284 282 281 281 281 280 280 279 279 279 278 278 278 278 278 278 278 278 278 277 277 277 277 277
288 287 287 286 286 286 286 286 285 285 285 285 285 285 286 286 285 284 282 281 281 281 280 280 279 279 278 278 278 277 277 277 277 277 277 277 276 276 276 276 275 275
287 287 286 286 285 285 285 285 284 284 284 284 285 285 285 285 284 282 281 281 280 280 280 279 279 278 278 277 277 277 277 276 276 276 276 275 275 275 275 274 274 274
287 286 285 285 284 284 284 284 284 284 284 284 285 285 284 283 282 281 280 280 280 279 279 278 278 278 277 277 276 276 276 276 275 275 275 274 274 274 273 273 273 273
286 285 284 284 284 283 283 283 283 283 284 284 284 284 283 282 280 280 280 279 279 279 278 278 277 277 276 276 276 275 275 274 274 274 273 273 273 272 272 272 272 272
285 284 284 283 283 283 283 283 283 283 283 284 284 283 281 280 280 279 279 279 279 278 278 277 276 276 276 276 275 275 274 274 273 273 272 272 272 272 272 271 271 271
285 284 283 283 283 282 282 282 282 283 283 283 282 281 280 279 279 279 279 278 278 277 277 276 275 275 275 275 274 274 273 273 272 272 272 271 271 271 271 271 271 271
284 283 283 282 282 282 282 282 282 282 283 282 281 280 279 279 279 278 278 277 277 276 276 275 275 275 275 274 273 273 272 272 272 271 271 271 271 272 272 272 272 272
284 283 282 282 281 281 281 281 282 282 281 281 280 279 279 278 278 278 277 276 276 276 275 274 274 275 275 274 273 272 272 272 271 271 272 272 272 272 272 273 273 273
283 282 282 281 281 281 281 281 281 281 280 280 279 279 278 278 277 277 276 276 275 275 274 274 274 275 274 273 273 273 273 272 272 272 272 273 273 273 273 273 273 273
283 282 281 281 281 280 280 280 280 280 280 279 278 278 278 277 277 276 276 276 275 274 274 274 274 274 273 273 273 274 274 274 273 273 273 273 274 274 274 274 274 274
282 282 281 281 280 280 280 280 280 279 279 278 277 277 277 276 276 276 276 275 275 274 273 274 274 274 273 273 274 274 275 275 274 274 274 274 274 274 274 274 274 274
282 281 281 280 280 280 280 280 279 279 278 277 276 276 276 275 275 275 275 274 273 273 273 274 274 274 272 273 274 274 275 275 275 275 275 274 274 274 274 274 274 273
281 281 280 280 279 279 279 279 278 277 276 276 275 275 275 274 274 274 274 273 272 272 273 274 274 273 272 272 273 274 274 275 275 275 275 274 274 273 273 273 273 273
281 280 279 279 278 278 278 277 277 276 275 275 275 275 275 274 274 274 274 273 273 273 273 274 274 272 272 272 273 274 274 275 275 274 274 273 273 273 273 273 273 273
280 279 278 278 277 277 276 275 275 274 274 274 274 274 274 274 274 274 274 274 274 273 273 274 274 272 271 272 273 273 274 274 274 273 273 273 273 273 273 273 273 274
280 279 277 277 276 276 275 274 274 274 274 274 274 273 273 273 274 274 274 274 273 272 272 273 273 272 271 271 272 273 274 274 274 273 273 273 273 273 273 274 274 274
279 278 277 276 276 275 275 274 274 274 274 274 274 274 274 274 274 274 273 273 273 272 272 272 272 271 271 271 272 273 274 274 274 274 274 274 274 274 274 274 275 275
278 278 277 276 275 275 275 275 274 274 274 274 274 274 274 274 274 274 273 272 272 271 270 270 270 271 271 271 272 273 274 274 274 274 274 274 274 274 275 275 275 275
278 277 277 276 275 275 275 275 275 274 273 273 273 274 274 273 273 272 272 271 271 270 270 269 270 270 270 271 272 273 274 274 274 274 274 274 274 275 275 276 275 275

ECMWFNIL_925_thetae_009.txt.gz
Theta_e
293 293 292 292 292 292 291 291 290 290 290 289 289 289 289 288 287 287 287 287 286 286 286 286 286 286 286 286 285 284 283 283 283 283 282 282 282 282 282 282 282 282
293 293 292 292 292 292 291 291 291 290 290 290 290 289 289 288 287 287 287 286 286 286 286 286 285 285 285 285 285 284 283 283 283 282 282 282 282 281 281 281 281 281
293 292 292 292 292 291 291 291 291 291 290 290 290 289 288 288 287 287 286 286 286 286 286 285 284 284 285 285 284 284 283 283 282 282 281 281 281 281 281 281 281 280
292 292 292 292 291 291 291 290 290 290 290 290 289 288 288 288 287 286 286 286 286 286 285 284 284 284 284 284 283 283 282 282 281 281 281 281 280 280 280 280 280 280
292 292 292 291 291 291 290 290 290 290 289 289 289 288 288 287 287 286 286 286 285 285 285 284 284 284 284 283 283 282 282 281 281 280 280 280 280 279 279 279 279 279
291 291 291 291 291 290 290 290 290 290 289 289 288 288 287 287 286 286 286 285 285 285 284 284 284 283 283 283 282 282 281 281 280 280 280 280 279 279 278 278 278 278
291 291 290 290 290 290 290 289 289 289 289 288 288 287 287 286 286 286 285 286 285 285 284 284 284 283 283 283 282 281 281 280 280 279 279 279 278 278 278 278 277 277
291 290 290 290 290 289 289 289 289 288 288 288 287 287 286 286 286 285 285 286 285 285 284 284 283 283 283 282 281 281 280 280 279 279 278 278 278 277 277 277 276 276
290 290 289 289 289 289 289 288 288 288 287 287 287 286 286 285 285 285 285 285 285 285 284 283 283 283 282 281 281 280 280 279 279 278 278 277 277 276 276 275 275 275
290 289 289 288 289 288 288 287 287 287 287 286 286 286 285 285 285 285 285 285 285 284 284 283 283 282 281 281 280 280 280 279 278 278 277 276 276 275 275 274 274 274
289 289 288 288 288 287 287 287 286 286 286 285 285 285 285 284 284 284 285 285 285 284 283 283 283 282 281 280 280 280 279 279 278 277 276 276 275 275 274 274 273 273
289 288 288 287 287 286 286 286 285 285 285 284 284 284 284 284 284 284 284 285 284 283 283 283 282 281 280 280 279 279 279 278 277 277 276 275 274 274 273 273 273 273
289 288 287 287 286 286 285 285 284 284 284 284 284 284 284 284 284 284 284 284 283 283 282 282 281 280 279 279 279 279 278 277 277 276 275 274 273 273 273 273 273 272
288 288 287 286 286 285 284 284 284 283 283 283 283 283 283 284 284 283 283 282 282 282 281 281 280 279 279 279 279 278 278 277 277 276 274 273 273 273 273 273 273 273
288 287 286 285 285 284 283 283 283 283 283 283 283 283 283 283 283 283 282 281 280 280 280 279 279 279 279 279 279 278 278 277 276 275 274 273 273 273 273 273 273 273
287 286 285 285 284 283 283 282 282 282 282 282 282 282 282 282 281 281 281 280 280 279 279 279 279 279 279 279 279 278 277 276 275 274 273 273 273 273 273 273 273 274
287 286 284 284 283 283 282 281 281 281 281 281 281 281 281 281 280 280 279 280 280 279 279 278 278 279 279 279 278 277 277 276 275 274 274 273 274 274 274 274 274 274
286 285 284 283 283 282 281 281 281 281 280 280 280 280 280 279 279 279 279 279 278 278 278 278 278 279 279 278 277 277 276 276 275 274 274 274 274 274 274 274 274 274
285 284 283 282 282 281 281 280 280 280 280 280 279 279 279 279 278 278 278 278 278 278 278 278 278 279 278 277 276 276 276 277 276 275 275 275 275 275 275 275 274 274
284 284 283 282 281 281 280 280 280 280 279 279 279 279 278 278 277 277 277 277 278 278 278 278 278 278 277 276 276 276 277 277 276 276 275 275 275 275 275 274 273 273
284 283 282 281 281 280 280 279 279 279 278 278 278 278 278 278 277 277 277 278 278 278 278 278 278 277 276 276 275 276 276 277 276 276 275 275 275 274 274 273 273 273
283 283 282 281 280 280 279 279 278 278 278 277 277 277 276 276 276 277 277 277 277 278 278 278 278 276 276 275 275 275 276 276 276 275 275 275 274 273 273 273 273 273
283 282 281 281 280 279 278 278 278 277 277 277 276 275 275 274 275 276 277 278 278 278 278 278 277 276 275 275 274 275 276 276 275 275 274 274 273 273 273 273 273 274
283 282 281 280 279 278 278 277 277 276 276 276 276 275 274 274 275 276 277 277 278 278 278 277 277 275 275 274 274 274 275 275 274 274 274 274 274 273 273 274 274 274
283 282 281 280 279 278 278 277 276 276 275 275 275 274 274 274 275 275 275 276 277 277 277 276 276 275 274 274 273 274 275 274 274 274 274 273 274 274 274 274 275 275
282 281 281 280 279 278 277 277 276 275 274 274 274 274 274 274 274 274 275 275 275 276 275 275 275 274 273 273 273 274 275 275 274 274 274 274 274 274 274 275 275 275

ECMWFNIL_925_thetae_012.txt.gz
Theta_e
295 295 294 294 293 293 292 292 292 291 291 290 290 290 290 290 289 288 288 287 287 287 286 286 287 287 287 286 286 286 285 285 285 285 285 285 285 284 284 284 283 283
295 294 294 294 293 293 292 292 292 291 291 290 290 290 289 289 289 288 288 287 287 286 286 286 286 286 286 286 286 286 285 285 285 285 285 285 285 285 284 284 284 283
295 294 294 294 293 293 292 292 291 291 291 291 290 290 289 289 289 288 288 287 287 286 286 286 286 286 286 286 286 285 285 285 285 285 284 285 285 285 284 284 283 283
294 294 294 294 293 293 292 291 291 291 291 290 290 290 289 289 289 288 288 287 286 286 286 286 286 286 286 285 285 285 285 285 284 284 284 284 284 284 284 284 283 282
294 294 294 293 293 292 292 291 291 291 290 290 290 289 289 289 288 288 288 287 286 286 285 285 285 285 285 285 285 285 284 284 284 284 284 284 284 284 283 283 282 282
294 293 293 293 292 292 291 291 291 290 290 290 289 289 289 289 288 288 287 287 286 286 285 285 285 285 285 285 284 284 284 283 283 283 283 283 283 283 283 282 282 281
293 293 293 292 292 291 291 291 291 290 290 289 289 289 289 288 288 288 287 287 286 286 285 285 285 285 284 284 283 283 283 283 283 283 283 283 283 283 282 282 281 280
293 293 292 292 291 291 291 291 290 290 289 289 289 288 288 288 288 288 287 287 286 285 285 285 285 285 284 283 283 283 283 282 282 283 283 283 283 282 282 281 280 279
293 292 292 291 291 291 291 290 290 289 289 289 288 288 288 288 288 287 287 286 286 285 285 285 284 284 283 283 283 283 283 282 282 282 283 283 283 282 281 280 279 279
292 292 291 291 291 290 290 290 289 289 289 288 288 288 287 287 287 287 287 286 286 285 285 284 283 283 283 283 283 283 283 282 282 282 283 283 283 282 281 280 279 278
292 291 291 290 290 290 290 289 289 289 288 288 287 287 287 287 286 286 286 286 285 285 284 284 283 282 282 282 282 282 282 282 282 283 283 283 282 281 280 279 278 277
291 291 291 290 290 290 290 289 288 288 288 287 287 287 286 286 286 286 285 285 285 285 284 283 283 282 282 282 282 281 281 281 282 282 282 282 281 280 279 278 277 277
291 291 291 290 290 290 289 288 288 287 287 287 287 286 286 285 285 285 285 285 285 284 284 283 282 282 281 281 281 281 281 281 282 282 281 281 280 279 278 277 277 276
291 291 291 290 289 289 288 288 287 287 287 287 286 286 285 285 285 285 285 284 284 284 283 282 282 281 281 281 281 280 280 281 281 281 281 280 279 278 277 277 276 276
291 291 290 289 289 288 288 287 287 286 286 286 285 285 285 285 285 285 284 283 283 282 282 281 281 281 281 281 281 280 281 281 281 281 280 279 278 277 276 276 276 276
291 290 289 289 288 288 287 287 286 286 285 285 284 284 284 284 284 284 283 283 282 281 281 281 281 281 281 281 281 281 281 281 281 280 280 279 278 276 276 276 276 275
290 290 289 288 287 287 286 286 285 284 284 284 283 283 283 283 283 283 282 282 282 281 281 280 280 281 281 280 280 281 281 281 281 280 279 278 277 276 276 275 275 275
290 289 288 287 287 286 285 285 284 283 283 283 283 283 282 282 282 282 282 281 281 281 280 280 280 281 280 280 280 280 281 281 280 279 278 277 276 276 276 275 275 274
289 288 287 287 286 285 284 284 283 283 283 282 282 282 282 281 281 281 281 280 280 280 280 280 280 280 279 279 279 280 280 280 279 279 278 277 276 276 275 275 275 275
288 288 287 286 285 284 283 283 282 282 282 282 281 281 280 280 280 280 280 280 279 279 279 279 280 280 279 278 279 279 279 279 278 278 277 277 276 276 275 275 275 275
288 287 286 285 284 283 283 282 282 282 281 281 281 280 280 280 280 279 279 279 279 279 278 278 279 279 278 279 279 279 278 278 277 277 276 276 276 275 275 275 275 275
287 286 285 284 283 283 282 281 281 281 281 280 280 280 280 279 279 279 278 278 278 278 277 277 278 278 278 279 280 280 279 278 277 277 276 276 276 275 275 275 275 274
287 286 284 284 283 282 282 281 281 281 280 280 279 279 279 279 278 278 278 277 277 277 276 277 277 278 279 280 280 280 280 279 277 277 276 276 275 275 275 275 274 274
286 285 284 283 282 282 282 281 281 280 280 279 279 279 278 278 278 277 277 277 277 276 276 277 277 278 280 280 280 280 280 278 277 276 276 275 275 275 274 274 273 273
285 285 284 284 283 282 282 281 281 280 279 279 278 278 278 277 277 276 276 276 276 276 276 276 277 278 279 280 280 280 279 278 277 276 275 275 274 274 274 273 273 274
285 285 284 283 283 282 281 281 280 279 279 278 278 277 277 276 276 276 275 275 275 275 275 275 276 277 279 279 279 279 279 277 276 275 275 274 274 273 273 273 274 274

ECMWFNIL_925_thetae_015.txt.gz
Theta_e
296 296 296 296 296 295 295 294 294 294 293 293 292 292 292 292 292 292 292 291 290 289 288 287 287 287 287 287 287 287 287 288 287 287 287 287 286 286 286 285 285 284
296 296 296 296 295 295 295 295 294 294 293 293 293 292 292 292 291 291 292 291 290 289 288 287 287 286 287 286 286 286 287 287 287 287 287 286 286 285 285 285 284 284
296 296 295 296 295 295 295 294 294 294 294 293 293 292 292 291 291 291 291 291 290 289 288 287 287 286 286 286 286 286 286 286 286 286 286 286 285 285 285 285 285 284
295 295 295 295 295 295 294 294 294 294 293 293 293 292 292 291 291 291 291 290 290 289 288 287 286 286 286 286 285 285 286 286 286 286 285 285 285 285 284 284 284 284
295 295 295 295 295 295 294 294 294 293 293 293 292 292 291 291 291 290 290 290 289 288 288 287 286 286 286 285 285 285 285 285 285 285 285 285 284 284 284 284 284 284
295 295 295 295 294 294 294 294 294 293 293 292 292 291 291 291 290 290 290 289 289 288 287 287 286 285 285 285 285 285 284 284 285 285 284 284 284 283 283 283 284 284
295 295 294 294 294 293 293 293 293 293 292 292 291 291 291 290 290 290 290 289 288 288 287 286 286 285 285 285 284 284 284 284 284 284 284 284 283 283 283 283 283 283
295 295 294 294 293 293 293 292 292 292 292 291 291 291 291 290 290 289 289 289 288 287 287 286 286 285 285 285 284 284 284 284 284 284 283 283 283 283 283 283 283 283
294 294 293 293 293 293 292 292 292 292 291 291 290 290 290 290 290 289 289 288 288 287 287 286 285 285 285 285 284 284 284 284 284 283 283 283 283 283 283 283 282 282
293 293 293 293 293 292 292 292 292 291 291 290 290 290 289 289 289 289 288 288 287 287 286 286 285 285 284 284 284 284 284 284 283 283 283 283 283 283 283 283 283 282
293 293 292 292 292 292 293 292 292 291 290 290 289 289 289 289 288 288 288 288 287 287 286 285 285 284 284 284 284 284 284 284 283 283 283 283 283 283 283 283 283 283
293 293 292 292 292 292 292 292 291 290 290 289 289 289 288 288 288 288 287 287 287 287 286 286 285 284 284 284 284 284 283 283 283 283 283 283 283 283 283 283 283 283
293 293 292 293 292 292 292 291 290 290 289 289 288 288 288 287 287 287 287 287 287 286 286 286 285 284 284 283 283 283 283 282 282 283 282 282 282 282 283 283 283 282
293 293 293 293 292 291 291 290 290 289 289 289 288 287 287 287 287 287 286 286 286 286 286 285 284 284 283 283 283 282 282 282 282 282 282 282 282 282 282 282 281 281
293 293 292 292 291 291 291 290 290 289 289 288 287 287 287 287 286 286 286 285 285 285 285 284 284 284 283 283 283 282 282 281 282 282 282 281 281 280 280 280 280 279
293 292 292 292 291 291 290 290 289 289 288 287 287 286 286 286 286 285 285 285 285 284 284 283 283 283 283 283 283 283 282 281 281 281 281 281 280 279 279 278 278 278
292 292 292 291 291 291 290 289 289 288 287 287 286 286 286 285 285 285 285 285 284 284 283 283 282 282 283 283 283 282 282 281 281 280 280 280 280 279 278 277 277 277
292 292 291 291 291 290 289 289 288 287 287 286 285 285 285 285 284 284 284 284 284 283 283 282 282 282 282 282 282 281 281 281 280 280 279 279 279 279 278 277 277 276
292 291 291 291 290 290 289 288 287 287 286 285 285 285 284 284 284 284 283 283 283 282 282 282 282 281 281 281 281 281 281 280 280 279 279 278 278 278 277 277 276 276
291 291 291 290 290 289 288 287 287 286 286 285 285 284 284 283 283 283 283 283 282 282 281 281 281 281 281 281 281 280 280 280 279 278 278 278 278 278 277 277 276 276
290 290 290 289 289 288 287 287 286 285 285 284 284 284 283 283 283 282 282 282 281 281 281 280 280 280 280 281 281 281 280 279 278 277 277 277 277 276 276 276 276 276
289 289 289 288 288 287 286 286 285 285 284 284 283 283 283 282 282 282 282 281 281 281 280 280 279 279 280 281 282 282 280 278 277 277 276 276 275 275 276 276 276 276
289 288 288 288 287 286 285 285 284 284 284 283 283 282 282 282 281 281 281 281 280 280 280 279 279 279 281 282 283 282 281 278 276 276 276 275 275 275 276 276 276 276
288 288 287 287 286 285 285 284 284 283 283 282 282 282 281 281 281 281 280 280 280 279 279 279 278 279 281 282 283 283 281 278 276 276 275 275 275 275 275 276 275 276
288 287 287 286 286 285 284 284 283 283 282 282 282 281 281 281 280 280 280 279 279 279 279 279 278 279 281 283 283 283 281 278 276 276 276 275 275 275 275 275 275 275
288 287 287 286 286 285 284 283 283 282 282 281 281 281 281 280 280 279 279 279 279 279 278 279 278 279 280 283 283 283 281 278 276 276 276 276 275 275 275 275 275 275

ECMWFNIL_925_thetae_021.txt.gz
Theta_e
297 297 297 297 297 297 296 296 296 296 296 295 295 295 295 295 294 294 294 294 294 294 294 294 293 293 293 293 292 291 290 290 290 290 290 290 290 289 290 290 291 292
297 296 297 296 296 296 296 296 296 296 296 296 296 295 295 294 294 294 294 293 293 293 293 293 292 292 292 292 292 291 290 289 289 289 289 289 289 289 289 290 290 291
296 296 296 296 296 296 296 296 295 295 296 295 295 295 295 295 294 294 293 293 293 293 292 292 292 292 292 291 291 290 290 289 289 289 289 289 289 289 289 290 290 290
295 295 296 295 295 295 295 295 295 295 295 295 295 295 295 295 294 294 293 293 293 292 292 292 291 291 291 291 290 290 289 289 289 288 288 288 289 289 289 289 289 289
294 295 295 295 295 295 295 295 295 295 295 295 295 295 295 295 294 294 294 293 293 292 292 291 291 291 290 290 289 289 289 288 288 288 288 288 288 288 288 288 288 288
294 294 294 294 295 294 295 295 295 295 295 295 295 295 294 294 294 294 294 293 293 293 292 291 291 290 290 289 289 289 288 288 287 287 287 287 287 287 287 288 288 288
294 294 294 294 294 294 294 294 294 294 294 294 294 294 294 294 293 293 293 293 293 293 292 292 291 290 290 289 289 288 288 288 287 287 287 287 287 287 287 287 287 287
293 293 293 293 293 293 294 294 294 294 294 294 294 294 293 293 293 293 293 293 293 292 292 291 291 290 290 289 289 288 288 287 287 286 286 286 286 286 286 286 286 286
293 292 292 292 292 293 293 293 294 294 294 293 293 293 293 293 293 292 292 292 292 292 291 291 290 290 290 290 289 288 288 287 286 286 286 286 286 286 286 286 285 285
292 292 292 292 292 292 292 292 293 293 293 293 293 293 292 292 292 292 292 291 291 291 291 290 290 290 289 289 289 288 288 287 287 286 286 286 286 286 286 286 285 285
291 291 291 291 291 291 291 291 292 292 292 292 292 292 292 292 291 291 291 291 291 290 290 290 290 289 289 289 288 288 287 287 287 286 286 285 285 286 286 286 286 285
290 291 291 291 291 291 291 291 291 291 291 291 291 291 291 291 290 290 290 290 290 290 290 290 289 289 289 288 288 287 287 287 286 286 286 285 285 285 285 285 286 285
289 290 290 291 290 290 290 290 291 291 291 291 291 291 291 290 290 290 290 290 290 290 290 289 289 289 288 288 288 287 287 286 286 285 285 285 285 285 285 285 285 285
288 289 289 290 291 291 290 290 290 290 290 291 291 290 290 290 290 290 289 289 289 289 289 289 288 288 288 288 287 287 286 286 286 285 285 284 284 284 284 284 284 284
288 288 288 289 290 291 291 290 290 289 289 290 290 290 290 290 290 290 289 289 289 288 288 288 288 288 288 287 287 286 286 286 285 285 285 284 284 284 283 283 283 283
288 288 288 288 289 290 291 291 290 290 289 289 289 290 290 290 290 289 289 288 288 288 288 287 287 287 288 288 287 287 286 286 285 285 285 284 284 283 283 282 282 283
287 287 287 288 288 288 289 290 291 290 290 289 289 289 289 289 289 289 289 288 288 288 287 287 287 287 287 287 287 287 287 286 285 285 284 284 284 283 283 282 282 282
287 287 287 287 287 287 287 288 289 290 290 289 288 288 288 288 288 288 288 288 288 287 287 287 287 287 287 287 287 286 286 286 286 285 284 284 283 283 282 282 281 281
286 286 287 287 287 286 286 287 287 288 289 289 288 288 287 287 288 288 288 287 287 287 287 287 287 287 287 286 286 286 286 286 286 285 284 284 283 283 282 282 281 281
285 286 287 287 286 286 285 285 286 287 288 288 288 287 287 287 287 287 287 287 287 287 286 286 287 287 286 286 286 286 285 285 285 285 284 284 283 283 282 282 281 281
284 285 286 286 286 285 285 285 285 285 286 287 288 287 286 286 286 286 286 286 286 286 286 286 286 286 286 286 285 285 285 286 285 285 284 283 283 282 282 281 281 280
283 285 286 285 285 284 284 284 284 284 285 286 287 287 286 286 286 286 286 286 286 286 285 285 286 285 285 285 285 285 286 286 286 285 284 283 283 282 281 281 280 280
281 284 285 284 283 283 283 283 283 283 284 284 286 286 286 286 285 285 285 285 285 285 285 285 285 285 285 285 285 285 286 286 286 285 284 283 282 282 281 280 280 280
280 283 283 282 281 281 280 280 281 282 283 283 284 285 285 286 285 285 284 284 284 284 284 284 284 284 284 284 284 285 286 286 286 285 284 283 282 281 280 280 279 279
279 281 281 279 279 278 278 278 279 281 282 283 283 284 285 285 285 284 284 284 284 284 284 284 284 284 284 284 284 285 286 286 286 285 283 282 281 280 279 279 278 278
278 279 277 277 276 275 275 277 278 280 281 282 282 283 283 284 284 284 283 283 283 283 283 283 283 283 283 283 284 285 286 286 286 285 283 282 280 279 278 278 277 277

ECMWFNIL_925_thetae_024.txt.gz
Theta_e
296 296 297 298 298 298 298 298 298 298 298 298 298 297 297 296 296 295 295 294 294 294 294 293 293 293 293 293 293 293 292 292 292 291 291 291 291 291 291 291 292 292
294 294 295 296 296 297 297 297 297 297 297 297 297 297 297 296 296 296 295 294 294 293 293 293 293 293 293 293 292 292 292 291 291 291 291 290 290 290 290 291 291 291
293 293 293 294 294 295 295 295 296 296 296 296 296 296 296 296 296 296 295 294 294 293 293 293 293 293 293 293 292 292 291 291 291 291 290 290 290 290 290 290 290 291
292 292 292 293 293 293 294 294 294 295 295 295 295 295 295 295 295 295 295 294 294 293 293 293 293 293 293 292 292 292 291 291 291 290 290 290 289 289 289 289 289 290
292 292 292 292 292 292 292 293 293 294 294 294 294 294 294 294 294 294 294 294 294 293 293 293 293 292 292 292 292 291 291 291 290 290 290 289 289 289 289 289 289 289
292 292 292 292 292 292 292 292 292 293 293 293 294 294 294 294 294 294 294 294 294 293 293 293 292 292 292 291 291 291 291 291 291 290 290 289 289 289 289 288 288 289
290 291 291 292 292 291 291 291 292 292 292 292 292 293 293 293 293 293 293 293 293 293 293 293 292 292 292 291 291 291 290 290 290 290 290 289 289 289 288 288 288 288
289 289 289 290 291 291 291 291 291 291 291 291 291 292 292 292 292 293 293 293 293 293 293 293 292 292 292 291 291 290 290 290 290 290 290 289 289 289 288 288 288 288
289 289 289 289 289 290 290 291 291 291 291 291 291 291 291 291 292 292 292 292 292 292 292 292 292 292 291 291 291 290 290 290 290 290 289 289 289 289 288 288 288 287
289 288 288 288 288 289 289 290 290 290 290 290 290 290 291 291 291 291 291 291 291 292 292 292 292 292 291 291 291 291 290 290 290 290 289 289 289 289 288 288 288 287
288 288 288 288 288 288 288 288 289 289 290 290 290 290 290 290 290 290 290 290 291 291 291 291 291 291 291 291 291 291 291 290 290 289 289 289 289 288 288 288 288 287
287 287 287 287 287 287 287 287 287 288 288 289 289 289 289 289 289 290 290 290 290 290 290 291 291 291 291 291 291 291 290 290 289 289 289 289 288 288 288 288 288 288
286 285 285 285 286 286 286 286 287 287 287 287 288 289 289 289 289 289 289 289 289 289 290 290 290 290 290 290 290 290 290 289 289 289 288 288 288 288 288 288 288 288
287 286 285 285 285 285 285 285 285 285 286 286 287 288 289 289 289 289 289 289 289 289 289 289 289 290 290 289 289 289 289 289 289 288 288 288 288 287 287 287 287 287
288 287 286 285 285 285 285 285 284 284 285 285 286 286 287 288 288 288 288 288 288 288 288 288 289 289 289 289 289 289 288 288 288 288 288 287 287 287 287 287 286 286
287 287 286 286 286 286 285 284 284 284 284 284 285 285 286 286 287 288 288 288 288 288 288 288 288 288 288 288 288 288 288 288 288 288 287 287 287 287 287 286 286 286
286 286 285 286 286 286 286 285 284 283 283 283 284 284 284 285 285 286 287 288 288 288 288 288 288 288 288 288 288 288 288 288 288 288 287 287 287 286 286 286 286 286
284 284 284 284 286 286 286 285 283 283 282 283 283 283 283 284 284 285 286 287 287 288 288 288 288 288 288 288 288 288 288 288 288 287 287 287 287 286 286 286 286 286
283 283 282 282 284 286 285 284 283 283 283 282 282 282 282 283 283 284 284 285 286 287 287 287 287 287 288 288 287 287 287 288 288 288 287 287 287 287 286 286 286 285
282 282 280 280 282 284 284 283 283 283 282 282 282 282 282 283 283 283 283 284 285 286 286 287 287 287 287 287 287 287 287 287 288 288 287 287 287 287 286 286 286 285
281 280 279 279 281 283 283 282 281 281 280 280 281 282 283 283 284 283 283 283 283 284 285 286 286 287 287 286 287 287 287 287 288 288 287 287 287 287 286 286 286 285
280 279 278 278 279 281 281 280 279 279 278 278 279 280 282 283 284 283 283 283 283 283 284 285 286 287 287 286 286 286 287 287 288 288 287 287 287 287 286 286 286 285
279 278 277 277 278 280 280 278 277 277 276 277 278 279 281 282 282 282 282 282 282 283 283 284 285 286 286 286 286 286 287 287 287 287 288 287 287 287 286 286 285 285
278 277 276 276 277 278 278 276 275 275 274 275 277 278 280 281 282 282 281 281 282 282 283 283 284 285 286 285 285 285 286 286 287 287 287 288 287 287 287 286 285 285
277 276 275 276 276 276 275 274 274 273 274 274 276 277 278 279 281 281 281 281 281 282 282 282 283 284 285 285 285 285 285 286 286 287 287 288 288 287 287 286 285 284
275 274 274 274 274 274 273 272 272 272 273 274 274 275 276 277 278 280 280 281 280 281 281 282 282 283 283 285 284 284 285 285 286 286 287 287 288 287 286 285 284 284

ECMWFNIL_925_thetae_027.txt.gz
Theta_e
295 295 296 296 297 297 297 298 298 299 299 299 300 300 300 300 300 299 298 298 298 298 297 297 297 297 297 296 296 296 295 295 295 295 294 294 294 294 294 295 296 297
294 294 294 295 295 295 295 296 296 297 297 297 298 298 298 299 299 299 298 298 297 297 297 297 297 297 296 296 296 296 295 295 295 295 294 294 294 294 294 294 295 295
293 293 294 294 294 294 294 294 295 295 295 296 296 296 297 297 298 298 298 297 297 297 297 296 296 296 296 296 295 295 295 295 294 294 294 294 294 294 293 293 294 294
291 291 292 292 293 293 293 294 294 294 294 294 295 295 295 296 296 297 297 297 296 296 296 296 296 296 296 296 295 295 295 294 294 294 294 294 294 294 293 293 293 294
290 290 291 291 291 292 292 293 293 293 293 293 293 293 294 294 295 295 295 296 296 296 295 295 295 295 295 295 295 295 294 294 294 294 293 293 293 293 293 293 293 293
290 290 290 290 291 291 291 291 291 292 292 292 292 293 293 293 293 294 294 295 295 295 295 295 295 295 295 295 294 294 294 294 294 293 293 293 293 293 293 293 293 292
289 289 289 289 290 290 290 290 290 291 291 291 292 292 292 292 292 292 293 293 294 294 294 294 294 294 294 294 294 294 294 293 293 293 293 292 292 292 292 292 292 292
288 288 288 288 288 289 289 289 289 290 290 290 290 291 291 291 292 292 292 292 293 293 294 294 294 294 294 294 294 293 293 293 293 293 292 292 292 292 292 292 292 292
288 287 287 286 287 287 287 287 288 288 288 288 288 289 289 290 291 291 291 291 291 292 292 293 293 293 293 293 293 293 293 293 293 292 292 292 291 292 292 292 291 291
288 287 287 286 286 286 286 286 286 286 286 287 287 287 287 288 289 290 290 291 291 291 291 292 292 292 292 292 292 292 292 292 292 292 292 292 292 291 291 292 291 291
288 288 287 286 286 286 286 285 285 285 285 285 286 286 286 286 287 288 289 290 290 290 291 291 291 291 291 292 292 292 292 291 292 292 291 292 291 291 291 291 291 291
288 288 288 287 286 286 286 285 285 284 284 284 284 285 285 285 286 287 287 288 289 289 290 290 290 290 291 291 291 291 291 291 291 291 291 291 291 291 291 291 291 291
288 288 288 288 287 287 286 286 285 284 284 284 284 284 284 284 285 285 286 286 287 288 289 289 289 289 290 290 290 290 291 291 290 290 290 291 290 290 290 290 290 291
287 287 287 287 287 286 286 286 286 285 284 284 284 284 284 284 284 284 284 285 286 286 287 288 289 289 289 289 289 290 290 290 290 290 290 290 290 290 290 290 290 290
286 286 286 286 286 285 285 286 286 286 285 284 284 283 284 283 284 284 284 284 284 285 286 286 287 288 288 289 289 289 289 289 289 289 289 289 289 289 289 289 289 289
285 285 285 285 285 284 284 285 286 286 285 284 284 284 284 283 283 284 284 284 284 284 285 285 286 286 287 288 288 289 289 289 289 289 289 289 289 289 289 289 289 289
284 284 284 284 283 283 283 283 284 285 285 284 283 283 283 283 283 283 284 284 285 284 285 285 285 285 286 287 287 288 288 288 288 288 288 288 288 289 289 289 289 289
283 283 283 283 283 282 282 282 282 283 284 283 283 283 282 282 282 283 283 284 284 284 285 285 285 285 285 285 286 286 287 288 288 288 288 288 288 288 288 288 288 288
283 283 283 283 282 282 281 281 281 282 283 282 282 282 281 281 281 282 282 283 284 284 284 284 284 284 284 284 284 285 285 287 288 288 288 288 288 288 288 288 288 288
282 282 282 282 282 281 281 280 280 281 282 282 281 280 280 280 280 280 281 282 284 284 284 284 284 284 283 283 283 284 284 286 287 288 288 288 288 288 288 288 288 288
282 282 282 281 281 281 280 280 279 279 280 281 280 279 279 278 279 279 280 281 282 283 283 283 283 283 283 283 283 283 283 285 286 287 288 288 288 288 288 288 288 288
281 281 281 281 281 280 279 279 278 278 279 279 278 278 277 277 277 278 279 280 280 281 282 283 283 283 283 283 283 283 283 284 285 286 287 288 288 288 288 288 288 288
281 281 280 280 280 280 279 278 278 277 278 278 277 276 276 276 276 277 277 278 279 280 281 282 282 282 282 282 282 282 283 284 285 285 286 287 287 287 288 288 288 288
280 280 279 279 279 279 278 277 276 276 277 276 275 275 275 275 275 275 276 277 278 278 279 280 281 281 282 282 282 282 283 284 284 285 286 286 286 287 287 288 288 288
278 278 278 278 278 277 277 276 275 275 276 275 274 274 274 274 274 274 275 275 276 276 277 278 279 280 280 281 281 281 282 283 284 285 285 286 286 286 287 287 288 288
276 276 276 276 276 276 275 274 274 274 274 273 273 273 273 272 273 273 273 274 274 274 275 276 277 277 278 279 280 281 282 283 283 284 285 285 286 286 287 287 287 288

ECMWFNIL_925_thetae_030.txt.gz
Theta_e
292 293 293 293 293 293 294 294 294 295 295 295 295 296 296 296 297 297 298 299 299 299 298 298 298 298 298 298 298 298 298 298 297 297 297 297 296 296 296 295 296 296
291 291 291 292 292 292 292 292 293 293 293 293 293 294 294 295 295 296 296 297 298 298 298 298 297 297 297 297 297 297 297 297 297 297 296 296 296 296 295 295 295 296
290 290 290 290 290 290 290 291 291 291 291 292 292 293 293 293 293 294 295 295 296 296 297 297 297 296 296 296 297 297 297 297 296 296 296 296 296 296 295 295 295 295
288 289 289 289 289 289 289 289 289 289 289 290 291 291 292 292 292 292 293 293 294 295 295 295 295 296 296 296 296 296 296 296 296 296 296 296 295 295 295 295 295 295
287 287 287 288 288 288 288 288 288 288 288 288 289 289 290 291 291 292 292 292 292 293 293 294 294 295 295 295 295 295 295 295 296 295 295 295 295 295 294 294 294 294
287 287 286 286 286 286 286 286 286 286 287 287 287 287 288 288 289 290 291 291 291 292 292 292 293 294 294 294 294 295 295 295 295 295 295 295 295 294 294 294 294 294
288 287 287 286 286 286 286 286 286 285 285 286 286 286 286 287 287 288 289 290 290 291 291 291 292 292 293 293 294 294 294 294 294 294 294 294 294 294 294 294 293 293
288 288 287 287 286 286 286 286 285 285 285 285 285 285 285 285 286 286 286 287 288 289 290 290 291 291 291 292 293 293 293 294 294 294 294 294 294 293 293 293 293 293
288 288 287 287 287 286 286 286 286 286 285 285 285 285 284 284 285 285 285 285 285 286 287 289 290 290 291 291 291 292 292 293 293 293 293 293 293 293 293 293 292 292
287 287 287 287 287 287 286 286 286 286 286 285 285 284 284 284 284 284 284 284 284 285 285 286 287 288 289 290 291 291 291 291 292 292 292 292 292 292 292 292 292 292
286 286 286 286 286 286 286 286 285 285 286 285 285 285 284 284 284 284 284 284 284 284 284 284 285 286 287 288 289 290 290 290 291 291 291 291 291 291 291 292 292 291
285 285 285 285 285 285 285 285 284 284 284 284 285 285 285 284 284 284 284 284 284 284 284 284 285 285 285 286 287 288 290 290 290 290 290 290 290 291 291 291 291 291
285 285 285 284 284 284 284 284 284 284 283 283 284 284 284 284 284 283 283 283 283 284 284 284 284 285 285 285 285 286 287 288 289 290 290 290 290 290 290 290 290 290
285 285 284 284 284 284 284 284 284 284 283 283 283 283 283 284 283 283 283 283 283 283 283 284 284 284 284 284 285 285 286 287 287 288 289 289 289 289 289 290 290 290
285 285 285 285 284 284 284 284 284 284 283 283 283 283 283 283 283 283 282 282 282 282 282 283 283 284 284 284 285 285 285 285 286 287 288 288 288 289 289 289 289 289
284 284 284 284 284 284 284 284 284 284 283 283 283 282 282 282 282 282 282 282 282 282 282 282 282 283 284 284 285 285 285 285 285 286 286 287 287 288 288 288 289 289
284 284 283 283 283 283 283 283 283 283 283 283 283 282 282 282 282 282 282 281 281 281 281 281 281 282 283 284 284 285 285 285 285 285 286 286 287 287 287 288 288 288
283 283 283 283 283 283 283 282 282 282 282 282 282 282 281 281 281 281 281 281 280 280 280 280 281 281 282 283 284 285 285 285 285 285 285 286 286 287 287 287 287 288
283 283 283 282 282 282 282 282 282 282 282 281 281 281 280 280 280 280 280 280 280 279 279 279 280 280 281 282 283 283 284 285 285 285 285 285 286 286 286 287 287 287
282 282 282 282 282 281 281 281 281 281 281 281 281 280 279 279 279 279 279 279 279 278 278 278 279 279 280 281 282 282 284 285 285 285 285 285 285 285 286 286 286 287
281 281 281 281 280 280 280 280 280 280 280 280 280 279 279 278 278 278 278 278 278 277 277 277 277 278 279 280 281 282 284 284 284 285 285 285 285 285 285 285 286 286
280 279 279 279 279 279 279 279 279 279 279 279 278 278 278 277 277 277 277 277 277 276 276 276 276 276 277 279 280 282 283 283 284 284 284 284 284 284 284 284 285 285
277 277 277 277 277 277 277 277 277 277 277 277 277 276 276 276 276 275 276 276 275 275 275 275 275 275 276 277 278 280 281 281 282 283 283 283 283 283 283 283 284 284
275 275 275 275 275 275 275 275 274 274 274 274 274 274 274 274 274 274 274 274 274 274 274 274 274 274 275 276 277 278 279 279 280 281 282 283 283 283 283 283 283 284
272 272 273 273 273 272 272 271 271 271 271 271 272 272 272 272 273 273 273 273 273 273 273 273 273 273 273 274 275 276 277 278 278 279 280 281 281 282 282 283 283 283
269 270 270 270 269 269 268 268 268 268 268 269 269 269 270 270 271 271 271 271 271 271 271 272 272 272 272 273 274 275 275 276 276 277 278 279 280 281 282 282 283 283

ECMWFNIL_925_thetae_033.txt.gz
Theta_e
289 288 288 288 289 289 288 288 289 289 290 290 291 291 292 292 292 293 293 293 294 295 296 297 297 297 297 297 297 297 297 297 297 298 298 298 298 297 297 297 297 296
287 287 287 286 286 287 286 286 286 287 287 287 288 288 289 290 291 292 292 293 293 294 294 294 295 295 295 296 296 296 296 296 296 297 297 297 297 297 297 296 296 296
286 286 286 286 285 285 285 285 285 285 285 285 286 286 286 287 288 289 290 291 292 292 293 293 293 293 294 294 295 295 295 295 295 296 296 296 296 296 296 296 296 296
286 286 286 286 286 285 285 285 285 285 285 285 285 285 285 285 285 286 286 287 288 289 291 292 292 292 292 293 293 294 294 294 294 295 295 295 296 296 296 296 296 295
287 287 286 286 286 286 286 285 285 285 285 285 285 285 285 285 285 285 285 285 285 286 287 288 290 291 292 292 292 292 293 293 293 294 294 294 295 295 295 295 295 295
288 287 286 286 286 286 286 286 285 286 286 285 285 285 285 285 285 285 284 284 284 284 285 285 286 288 289 290 291 291 292 292 292 293 293 293 294 294 294 294 294 294
287 287 286 286 286 286 286 286 285 285 285 286 286 286 286 286 285 285 285 285 285 284 284 284 284 285 286 287 288 290 291 291 291 291 292 292 293 293 293 294 294 294
286 286 286 285 285 285 286 285 285 285 285 285 285 285 286 286 286 286 286 285 285 285 285 285 284 284 284 285 285 286 288 289 290 290 290 291 291 292 292 293 293 293
285 285 285 285 285 285 285 285 285 285 284 284 285 285 285 285 285 285 286 286 286 286 286 285 285 285 284 284 284 284 285 286 287 288 289 290 290 290 291 291 292 292
285 285 285 285 285 285 285 285 285 285 284 284 284 284 284 284 284 284 285 285 285 285 286 285 286 285 285 285 284 284 284 284 285 285 286 288 289 289 290 290 291 291
285 285 285 285 285 285 285 285 285 285 284 284 284 284 284 284 284 284 284 284 284 284 284 284 285 285 285 285 285 285 284 284 284 284 285 286 287 288 289 289 290 290
286 286 285 285 285 285 285 285 285 284 284 284 284 284 283 283 283 283 283 283 283 283 283 283 283 284 284 285 285 285 285 285 284 284 284 284 285 285 286 287 288 289
286 285 285 285 284 284 284 284 284 284 284 284 283 283 283 283 282 282 282 282 282 282 282 282 282 282 283 283 283 284 284 284 284 284 284 284 284 284 284 285 286 287
285 285 284 284 284 284 283 283 283 283 283 283 282 282 282 282 282 282 282 281 281 281 281 281 281 281 281 282 282 282 283 283 283 284 284 284 284 284 284 284 284 285
284 284 284 283 283 283 283 283 282 282 282 282 282 282 281 281 281 281 281 281 281 281 281 281 281 281 281 281 281 281 282 282 282 283 283 284 284 284 284 284 284 284
283 283 283 282 282 282 282 282 282 282 282 281 281 281 281 281 281 281 281 280 280 280 280 280 280 280 280 280 280 281 281 282 283 283 284 284 284 284 284 284 284 284
282 282 281 281 281 281 281 281 281 281 281 281 280 280 280 280 280 280 280 280 280 280 279 279 279 279 279 279 280 281 281 282 282 283 284 284 284 284 284 284 284 284
281 280 280 280 280 280 280 280 280 280 279 279 279 279 279 279 279 279 279 279 279 279 279 279 278 278 278 278 279 280 281 281 281 282 283 283 284 284 284 284 284 284
279 279 279 279 278 278 278 278 278 277 277 277 277 278 278 278 278 278 278 278 278 278 278 278 278 278 278 278 279 279 280 280 280 281 281 282 282 283 283 283 284 284
277 277 277 276 276 276 276 275 275 275 275 276 276 276 277 277 277 277 277 277 277 277 276 276 276 276 277 277 278 278 279 279 279 280 280 280 281 282 282 283 283 283
275 275 274 274 274 273 273 273 273 273 274 274 274 274 274 274 274 274 274 274 275 275 275 275 275 275 276 276 277 277 278 278 278 278 278 279 279 280 281 282 282 283
273 272 272 272 271 271 271 271 271 271 271 271 271 271 271 271 271 271 272 272 272 272 272 273 273 273 274 275 275 276 276 277 277 277 277 277 277 278 278 279 280 281
271 270 270 269 269 268 268 269 268 268 268 267 267 268 268 268 268 269 269 269 269 270 270 270 271 271 272 273 274 274 275 275 275 275 275 275 275 276 276 277 278 279
268 268 267 267 267 266 266 266 266 265 265 265 265 265 266 266 266 266 266 266 267 267 268 268 269 269 270 271 271 272 273 273 273 274 274 274 274 274 275 275 276 277
267 266 266 265 265 265 265 264 264 264 264 264 264 264 264 264 264 264 264 264 265 265 266 266 267 267 267 268 269 270 271 272 272 273 273 273 273 274 274 274 274 275
265 265 264 264 264 264 264 263 263 263 263 263 263 263 263 263 263 263 263 264 264 264 264 265 265 265 266 267 268 269 270 270 271 272 272 272 273 273 273 273 273 273

ECMWFNIL_925_thetae_036.txt.gz
Theta_e
286 286 285 285 285 285 285 285 285 285 285 285 285 285 285 285 285 285 286 286 286 287 288 289 290 292 292 293 293 293 294 294 295 295 295 295 295 295 296 296 296 296
286 286 286 286 286 286 285 286 286 286 286 286 286 286 286 286 286 286 285 285 285 285 286 286 287 288 289 290 291 292 292 293 293 294 294 294 294 294 295 295 295 296
286 286 286 286 286 286 286 286 286 286 286 286 286 286 286 286 286 286 286 286 286 286 286 285 285 285 286 287 288 289 290 291 292 292 292 293 293 293 294 294 294 294
286 286 286 286 286 286 286 286 286 286 286 286 286 286 286 286 286 286 286 286 286 286 286 286 286 286 285 285 285 286 287 287 289 289 290 291 292 292 292 293 293 293
286 286 286 286 286 287 287 287 287 287 287 286 286 286 286 286 286 286 286 286 286 286 286 286 286 286 286 285 285 285 285 285 286 286 287 288 289 290 291 291 292 292
286 286 286 286 286 286 286 286 286 286 286 286 286 286 286 286 285 285 285 285 285 285 285 285 286 286 285 285 285 285 285 285 285 285 285 285 286 287 288 289 290 291
286 286 286 286 286 286 285 285 285 285 285 285 285 285 285 285 285 285 285 284 284 284 284 284 285 285 285 285 284 284 284 285 285 285 285 285 285 285 285 286 287 288
285 285 285 285 286 285 285 285 285 284 284 284 284 284 284 284 284 284 284 284 284 284 284 283 283 284 284 284 284 284 284 284 284 284 284 285 285 285 285 285 285 285
286 285 286 286 286 286 285 285 284 284 284 283 283 283 283 282 282 282 283 282 283 283 283 283 283 283 283 283 283 283 283 284 283 283 283 283 284 284 285 285 285 285
286 286 286 286 285 285 285 284 284 283 283 283 282 282 282 282 281 281 281 281 281 281 281 282 282 282 282 282 282 282 282 282 283 282 282 283 283 283 284 284 284 284
286 286 286 285 285 284 284 283 283 282 282 282 281 281 281 281 281 281 281 281 280 280 280 280 281 281 281 281 281 281 281 281 281 281 282 282 282 282 282 283 284 284
286 286 286 285 284 284 283 283 282 281 281 281 280 281 281 281 280 280 280 280 280 280 280 280 280 280 280 280 281 281 281 280 280 280 281 281 281 281 281 282 283 283
286 286 285 285 284 284 283 282 281 280 280 279 280 280 280 280 280 279 279 279 279 279 279 279 279 279 280 280 280 280 280 280 280 280 280 280 280 281 281 281 282 282
285 285 285 284 284 283 282 281 280 279 279 279 279 279 278 278 278 278 278 278 278 278 278 279 279 279 279 279 279 279 279 279 279 279 280 280 280 280 281 281 282 282
284 284 283 282 282 281 280 279 278 278 278 278 277 277 277 277 277 277 277 277 277 277 278 278 278 278 278 278 278 279 279 279 280 280 280 280 280 280 280 281 281 281
283 283 281 280 279 279 278 277 277 276 276 276 276 276 276 275 275 275 276 276 276 277 277 277 277 277 277 278 278 279 279 280 280 280 280 280 280 280 280 280 280 281
281 280 279 279 278 277 276 276 275 275 275 275 275 274 274 274 274 274 275 275 275 275 276 276 276 276 277 277 278 278 279 279 279 279 279 279 279 279 279 279 280 280
279 278 277 277 276 276 275 275 275 274 274 274 273 273 273 273 273 273 273 273 273 273 273 273 274 274 275 275 276 276 277 277 278 278 278 278 278 278 278 279 279 279
277 276 276 275 275 274 274 274 273 273 273 272 272 271 271 271 270 270 270 270 270 270 270 270 271 271 272 273 274 274 275 276 276 276 276 276 277 277 277 277 277 278
275 275 274 274 273 273 273 272 272 272 271 270 270 269 269 268 268 268 268 268 268 268 268 268 268 269 270 271 272 272 273 274 274 275 275 275 275 275 276 276 276 276
274 273 273 273 272 272 272 271 271 270 269 268 267 267 267 266 266 266 266 266 266 266 266 265 266 266 268 269 270 271 272 272 273 273 273 273 274 274 274 274 275 275
272 272 271 271 271 271 271 270 269 268 267 266 266 265 265 265 265 265 264 264 264 264 264 264 264 265 266 267 268 269 270 270 270 271 271 271 271 271 272 272 273 273
270 270 270 270 269 269 269 268 267 266 265 265 264 264 264 264 264 264 264 263 263 263 263 263 263 264 265 267 267 268 269 269 269 269 270 270 270 270 270 271 271 272
269 269 269 269 268 268 267 266 265 264 264 264 263 263 263 263 263 263 263 263 263 263 263 263 263 264 264 266 266 267 268 269 269 269 269 270 270 270 270 270 270 271
269 268 268 268 267 266 265 264 264 264 263 263 263 263 263 263 262 262 262 262 262 262 263 263 263 263 264 265 266 267 268 268 269 269 269 269 269 269 269 269 269 270
268 268 267 267 266 265 264 264 263 263 263 263 262 262 262 262 262 262 262 262 262 262 262 262 263 263 263 264 266 267 268 268 269 269 269 269 269 269 269 269 269 270

ECMWFNIL_925_thetae_042.txt.gz
Theta_e
287 287 287 287 286 286 286 286 285 285 285 284 284 284 283 283 284 284 284 284 284 284 284 284 284 284 284 284 284 284 284 284 284 284 284 284 284 284 285 285 285 285
287 287 287 287 286 286 286 286 285 285 284 284 284 283 283 283 283 283 283 283 283 283 283 283 283 283 283 283 283 283 283 283 283 283 283 283 283 283 283 283 284 284
287 287 287 287 286 286 286 286 286 285 285 284 284 283 283 283 283 283 283 282 282 282 281 281 281 281 281 282 282 282 282 282 282 282 282 283 283 282 283 282 283 283
287 287 287 287 287 286 286 286 286 286 285 285 284 284 283 283 283 283 283 283 282 282 282 281 281 281 281 280 280 281 281 281 281 281 282 282 282 282 282 282 282 282
287 287 287 287 287 287 287 287 286 286 286 285 284 284 283 283 283 283 283 283 283 282 282 282 282 282 282 281 281 281 280 280 280 280 280 280 281 281 281 281 281 281
287 287 287 287 287 287 287 287 286 286 286 285 284 283 283 283 282 282 282 282 282 282 282 282 282 282 282 282 282 282 281 281 281 280 280 280 280 280 280 280 280 280
287 287 287 287 287 287 287 286 286 286 286 285 284 283 282 282 282 281 281 281 281 281 282 282 282 282 282 281 282 281 281 281 280 280 280 280 279 279 279 279 279 279
287 287 287 286 286 286 286 286 285 285 285 284 283 282 281 281 281 281 281 281 281 281 281 281 280 280 280 280 280 280 280 280 279 279 279 279 279 278 278 278 278 278
286 286 286 286 286 286 285 285 285 284 284 283 282 281 281 280 280 280 280 280 280 280 280 279 279 279 279 278 278 278 278 278 277 277 278 278 278 278 278 278 278 278
286 286 285 285 285 285 285 285 284 284 283 282 281 281 280 280 280 280 280 280 279 279 279 278 278 278 277 277 277 276 276 276 276 276 276 276 277 277 277 277 277 278
286 285 285 285 285 285 285 284 284 283 283 282 281 281 280 280 280 280 280 280 279 279 279 278 277 277 277 276 276 276 275 275 275 275 275 275 276 276 276 277 277 277
285 285 285 285 285 285 284 284 283 283 282 282 281 281 280 280 280 280 280 280 279 279 278 278 277 276 276 276 275 275 274 274 274 274 274 274 275 275 275 276 276 276
285 285 285 285 284 284 283 283 282 282 281 281 280 280 280 280 280 280 279 279 278 278 277 277 276 276 275 275 274 273 273 273 273 273 273 273 273 273 274 274 274 275
285 285 284 284 284 283 282 282 281 281 281 280 280 279 279 279 279 279 278 278 277 277 276 276 275 275 274 274 273 272 272 272 272 272 272 272 272 272 272 273 273 273
285 284 284 283 283 282 281 281 280 280 280 279 279 279 279 279 278 278 277 277 276 276 275 275 274 274 273 273 272 271 271 271 271 272 272 272 272 272 272 272 272 273
285 284 284 283 282 281 281 280 280 279 279 279 278 278 278 278 277 277 276 276 275 275 274 274 273 273 273 272 271 270 271 271 271 271 271 272 272 272 272 272 272 272
285 284 283 282 282 281 280 280 279 279 279 278 278 278 278 277 277 276 275 275 274 274 274 273 273 273 272 271 270 270 271 271 271 272 271 271 271 271 271 271 271 271
284 283 283 282 281 280 280 279 279 278 278 278 278 278 277 277 276 275 275 274 274 273 273 273 273 273 272 271 269 269 271 272 271 271 271 271 271 271 270 270 270 270
284 283 282 281 280 279 279 279 278 278 278 278 277 277 276 276 275 275 274 273 273 273 273 273 273 273 272 270 269 269 270 271 271 271 271 270 270 269 269 269 269 269
282 282 280 280 279 278 278 278 278 277 277 277 277 276 276 275 275 274 273 273 273 273 273 273 273 273 271 269 268 268 270 271 271 270 269 269 269 268 268 268 268 268
281 281 280 279 278 278 278 277 277 277 276 276 276 275 275 274 273 273 273 272 272 272 273 273 273 272 271 269 268 268 270 271 270 269 268 268 268 268 268 268 268 268
281 280 279 278 278 277 277 277 276 276 276 275 275 274 274 273 272 272 272 272 272 272 272 273 273 272 270 268 267 268 270 269 269 268 268 268 268 268 268 268 268 268
280 279 278 278 277 277 277 276 276 275 275 274 274 273 273 272 272 272 272 272 272 272 271 272 272 271 269 268 267 268 269 269 268 268 268 268 268 268 268 268 268 269
279 278 277 277 277 276 276 275 275 274 274 273 273 272 272 272 271 271 271 271 271 271 271 271 271 270 269 267 267 267 268 269 269 269 269 269 269 269 269 269 269 269
278 277 276 276 276 275 274 274 274 273 273 272 272 272 271 271 271 271 271 271 271 271 270 270 270 270 269 268 267 267 268 269 269 269 269 269 269 269 269 269 269 270
277 276 275 275 275 274 273 273 273 272 272 272 272 271 271 271 270 270 270 270 270 270 270 270 269 269 269 268 267 267 269 269 270 270 269 269 270 270 270 270 271 271

ECMWFNIL_925_thetae_045.txt.gz
Theta_e
287 287 287 286 286 286 285 285 285 285 284 284 283 283 283 282 282 283 282 282 282 282 282 282 283 283 283 283 283 283 283 283 283 283 283 283 283 283 283 283 282 282
287 287 286 286 286 286 286 286 285 285 284 284 283 283 283 283 283 282 282 282 282 282 282 282 282 282 282 283 283 283 283 283 283 283 283 283 282 282 282 282 282 282
286 286 286 286 286 286 286 286 286 286 285 285 284 284 283 283 283 283 283 283 282 282 282 282 283 283 283 283 283 283 283 282 282 282 282 282 281 281 281 281 281 281
286 287 287 287 287 287 287 287 287 286 286 285 285 284 284 283 283 283 283 283 283 283 283 283 283 283 283 283 283 283 283 283 282 282 282 282 281 280 280 280 279 279
287 287 287 287 287 287 287 287 287 286 286 286 285 285 284 284 284 283 283 283 283 283 283 283 283 283 283 283 283 283 283 283 282 282 282 281 281 280 279 279 278 278
287 287 287 287 287 287 287 287 287 287 286 286 286 285 284 284 283 283 282 282 282 282 282 282 282 282 282 282 282 282 282 282 282 282 282 281 281 280 279 278 277 277
287 287 287 287 287 287 287 287 287 286 286 286 285 285 284 283 282 282 282 281 281 281 282 282 282 282 282 281 281 281 281 281 281 281 281 280 280 280 279 278 277 277
287 287 287 287 287 287 286 286 286 286 285 285 284 284 283 282 282 281 281 281 281 281 281 281 281 281 281 281 281 280 280 280 280 280 279 279 279 279 278 277 277 276
287 287 287 286 286 286 286 286 285 285 284 284 283 283 282 281 281 281 281 281 281 281 281 281 280 280 280 280 280 279 279 279 279 278 278 278 277 277 276 276 275 275
287 286 286 286 286 286 286 285 285 284 284 283 283 282 282 281 281 281 281 280 280 280 280 280 280 279 279 279 279 278 278 278 278 277 277 276 276 275 275 274 274 274
286 286 285 286 286 286 285 285 284 284 283 283 282 282 281 281 280 280 280 280 280 280 280 279 279 279 279 278 278 277 277 277 277 276 276 275 274 274 273 273 273 273
285 285 285 286 285 285 285 284 284 283 283 282 282 281 281 280 280 280 280 280 280 279 279 279 278 278 278 277 277 276 276 276 276 275 274 274 273 273 273 272 272 272
285 285 285 285 285 285 284 283 283 282 282 281 281 280 280 280 280 280 280 279 279 279 279 278 278 277 277 276 276 276 276 275 275 274 273 273 272 272 272 272 272 272
285 285 285 285 285 284 283 283 282 282 281 281 280 280 280 280 280 279 279 279 279 278 278 278 277 277 276 275 275 275 275 274 273 272 272 272 272 272 272 272 272 272
285 285 285 285 284 283 283 282 282 281 281 280 280 280 279 279 279 279 279 279 278 278 277 277 277 276 275 275 274 274 273 272 272 272 272 272 272 272 272 272 271 271
285 285 285 285 284 283 283 282 282 281 280 280 279 279 279 279 279 279 278 278 278 277 277 277 276 276 275 274 274 273 272 272 272 272 272 272 272 272 271 271 271 271
286 285 285 284 283 283 283 282 281 280 279 279 279 279 279 278 278 278 278 277 277 277 276 276 276 275 274 274 274 272 271 271 272 272 272 272 272 271 271 271 270 270
285 285 284 283 282 282 282 281 280 280 279 279 278 278 278 278 278 278 277 277 277 276 276 275 275 275 274 274 273 272 270 271 272 271 272 272 271 271 270 270 269 269
285 284 283 282 282 282 281 281 280 279 279 278 278 278 278 278 277 277 277 276 276 275 275 275 275 275 274 273 273 271 270 271 272 272 271 271 270 269 269 269 269 268
283 283 282 282 281 281 281 280 279 279 278 278 278 278 278 277 277 277 276 276 275 275 275 275 275 274 273 273 272 271 270 271 272 271 270 270 269 268 268 268 268 268
283 282 282 282 282 282 281 280 279 278 278 278 277 277 277 277 276 276 276 275 275 274 274 274 274 274 273 272 272 270 270 271 271 269 269 269 269 268 268 268 268 268
282 282 282 282 282 282 280 279 279 278 277 277 277 277 277 276 276 276 275 274 274 274 274 274 274 274 273 272 271 270 269 269 269 269 269 269 269 269 269 269 269 269
283 282 282 282 282 281 280 279 278 277 277 277 277 276 276 276 275 275 274 274 273 273 273 274 274 274 273 272 271 270 269 269 269 269 269 269 269 269 269 269 269 269
283 282 282 281 281 280 279 278 277 277 277 276 276 276 276 275 275 274 274 273 273 273 273 273 274 273 272 271 271 270 269 269 269 269 269 269 270 270 270 270 270 271
282 282 281 280 280 279 279 278 277 277 276 276 276 275 275 275 274 274 273 273 273 273 273 273 273 273 272 271 271 269 269 269 270 270 270 270 270 270 271 271 271 272
281 281 280 279 279 279 278 277 277 276 275 275 275 275 274 274 274 273 273 273 272 273 273 273 273 272 272 271 270 269 269 270 270 270 271 271 271 271 272 272 272 272

ECMWFNIL_925_thetae_048.txt.gz
Theta_e
287 287 287 286 286 286 286 285 285 285 284 284 283 283 283 283 283 283 282 282 283 283 283 283 283 283 283 283 283 283 283 283 283 283 283 283 283 283 282 282 282 282
287 287 287 287 286 286 286 286 285 285 284 284 284 283 283 283 283 283 282 282 283 283 283 283 283 283 283 283 283 283 283 283 283 283 283 282 282 282 281 281 281 281
287 287 287 287 287 287 287 286 286 286 285 285 284 284 284 283 283 283 283 283 283 283 283 283 283 283 283 283 283 283 283 282 282 282 282 281 281 281 280 280 280 280
287 287 287 287 287 287 287 287 287 286 286 286 285 285 285 284 284 283 283 283 282 282 282 282 283 283 283 283 283 282 282 282 282 282 281 281 280 280 280 280 279 279
287 287 287 287 287 287 287 287 287 287 287 286 286 285 285 284 283 283 283 282 282 282 282 282 282 282 282 282 282 282 282 282 282 282 281 281 280 280 280 280 279 279
287 287 287 287 287 287 287 287 287 287 286 286 286 285 284 284 283 282 282 282 282 282 282 282 282 282 282 282 282 282 282 282 282 282 281 281 280 280 280 279 279 278
287 287 287 287 287 287 287 287 287 286 286 285 285 284 284 283 282 282 282 281 281 281 282 282 282 282 282 282 282 282 282 281 281 281 280 280 280 279 279 278 278 277
287 287 287 287 287 287 287 287 286 285 285 284 284 284 283 282 282 282 281 281 281 281 281 281 281 281 281 281 281 281 281 280 280 280 279 279 279 278 278 277 277 277
287 287 287 287 287 287 286 286 285 285 284 284 283 283 283 282 282 281 281 281 281 281 281 281 281 280 280 280 280 280 280 279 279 279 278 278 277 277 277 276 276 276
287 287 287 287 286 286 286 285 285 284 284 284 283 283 283 282 282 281 281 281 281 280 280 280 280 280 280 280 279 279 279 278 278 278 278 277 276 276 276 276 275 275
287 287 286 286 286 286 285 285 284 284 284 284 284 283 282 282 281 281 281 280 280 280 280 280 280 279 279 279 279 279 278 278 278 278 277 276 276 275 275 275 275 275
286 286 286 286 285 285 285 284 284 284 284 284 283 282 282 281 281 280 280 280 280 280 279 279 279 279 279 279 278 278 278 278 278 277 276 275 275 275 275 275 275 274
286 286 286 286 285 285 284 284 284 284 284 284 283 282 281 280 280 280 280 279 279 279 279 279 279 278 278 278 278 277 277 277 276 275 275 275 274 274 274 274 274 274
286 286 286 285 285 285 284 284 284 284 284 283 282 281 281 280 280 279 279 279 279 279 279 278 278 278 278 277 277 277 276 275 274 274 274 274 274 274 274 274 274 274
286 286 285 285 285 284 284 284 284 284 284 283 282 281 280 280 279 279 279 279 278 278 278 278 278 277 277 276 276 276 275 274 273 273 273 273 274 274 274 274 274 273
286 285 285 285 285 284 284 284 284 284 283 283 282 281 280 279 279 279 278 278 278 278 277 278 277 277 277 276 275 275 274 273 273 273 273 273 273 273 274 274 273 273
285 285 285 285 284 284 284 284 284 284 284 283 282 281 280 279 278 278 278 278 277 277 277 277 277 276 276 276 275 275 274 272 273 273 273 273 273 273 274 273 272 272
285 285 285 285 284 284 284 284 284 284 283 283 282 280 279 279 278 278 278 277 277 277 277 277 276 276 276 275 275 275 274 272 272 273 273 273 273 273 273 272 271 271
285 285 285 285 284 284 284 284 284 284 283 283 281 280 279 278 278 277 277 277 277 276 276 276 276 275 275 275 275 275 274 272 272 273 273 272 273 272 271 271 270 270
285 285 285 285 284 284 284 283 283 283 283 282 281 279 278 278 277 277 277 277 276 276 276 276 276 275 275 275 274 274 273 272 272 273 272 271 271 271 271 271 270 270
286 285 285 284 284 284 283 283 283 282 282 281 280 279 278 277 277 277 276 276 276 276 275 275 275 275 274 274 274 273 273 271 271 271 271 270 271 270 271 270 270 270
286 285 285 284 284 283 283 283 282 281 281 280 279 278 278 277 277 276 276 276 276 275 275 275 275 274 274 274 273 273 272 271 271 270 270 270 270 270 270 270 270 271
286 285 284 284 283 283 283 282 281 280 280 279 279 278 277 277 276 276 276 275 275 275 274 275 275 274 274 274 273 273 272 271 270 270 270 270 270 270 271 271 271 271
286 285 284 284 283 283 282 281 280 280 279 279 279 278 277 277 276 276 276 275 275 275 274 274 274 274 274 273 273 273 272 270 270 270 271 271 271 271 271 271 272 272
286 285 284 284 283 282 281 280 280 279 279 279 279 278 277 276 276 276 275 275 275 274 274 274 274 274 273 273 273 273 271 270 270 271 271 271 271 271 272 272 273 273
285 284 284 283 283 282 280 280 279 279 279 279 278 278 277 276 276 275 275 274 274 274 274 273 273 273 273 273 273 272 271 270 271 271 271 272 272 272 273 273 273 273